Weather History for Brownsville, TX

Change the Weather History Date:

Thursday, March 28, 2013

  Actual Average Record
Temperature  
Mean Temperature 70 °F 72 °F  
Max Temperature 76 °F 81 °F 96 °F (1899)
Min Temperature 64 °F 62 °F 41 °F (1913)
Degree Days  
Heating Degree Days 0 1  
Month to date heating degree days 24 41  
Since 1 July heating degree days 317 544  
Cooling Degree Days 5 7  
Month to date cooling degree days 134 152  
Year to date cooling degree days 355 293  
Growing Degree Days 20 (Base 50)    
Moisture  
Dew Point 60 °F    
Average Humidity 72    
Maximum Humidity 84    
Minimum Humidity 60    
Precipitation  
Precipitation 0.00 in 0.05 in 2.51 in (1999)
Month to date precipitation 0.28 1.11  
Year to date precipitation 1.76 3.46  
Sea Level Pressure  
Sea Level Pressure 30.16 in    
Wind  
Wind Speed 12 mph (SE)    
Max Wind Speed 23 mph    
Max Gust Speed 29 mph    
Visibility 10 miles    
Events      
T = Trace of Precipitation, MM = Missing Value Source: NWS Daily Summary

Daily Weather History Graph

Daily Weather History Graph

Search for Another Location

Airport:

Trip Planner

Search our weather history database for the weather conditions in past years. The results will help you decide how hot, cold, wet, or windy it might be!

Date:

Astronomy

Mar. 28, 2013 Rise Set
Actual Time 7:24 AM CDT 7:44 PM CDT
Civil Twilight 7:01 AM CDT 8:07 PM CDT
Nautical Twilight 6:34 AM CDT 8:34 PM CDT
Astronomical Twilight 6:07 AM CDT 9:02 PM CDT
Moon 9:23 PM CDT (3/28) 8:04 AM CDT (3/28)
Length of Visible Light 13h 06m
Length of Day
12h 20m
Full, 98% of the Moon is Illuminated
Mar 28
Full
Apr 2
Last Quarter
Apr 10
New
Apr 18
First Quarter
Apr 25
Full

Hourly Weather History & Observations

Time (CDT) Temp. Dew Point Humidity Pressure Visibility Wind Dir Wind Speed Gust Speed Precip Events Conditions
12:53 AM 64.9 °F 57.0 °F 75% 30.19 in 10.0 mi SE 10.4 mph - N/A   Clear
1:53 AM 66.0 °F 57.9 °F 75% 30.17 in 10.0 mi SE 9.2 mph - N/A   Overcast
2:53 AM 66.0 °F 59.0 °F 78% 30.16 in 10.0 mi SSE 10.4 mph - N/A   Overcast
3:53 AM 64.9 °F 59.0 °F 81% 30.14 in 10.0 mi SE 8.1 mph - N/A   Scattered Clouds
4:53 AM 64.9 °F 59.0 °F 81% 30.13 in 10.0 mi SE 6.9 mph - N/A   Mostly Cloudy
5:53 AM 66.0 °F 60.1 °F 81% 30.12 in 10.0 mi SE 8.1 mph - N/A   Mostly Cloudy
6:53 AM 66.0 °F 60.1 °F 81% 30.13 in 10.0 mi SE 8.1 mph - N/A   Scattered Clouds
7:53 AM 66.9 °F 61.0 °F 81% 30.14 in 10.0 mi SE 6.9 mph - N/A   Partly Cloudy
8:53 AM 70.0 °F 61.0 °F 73% 30.15 in 10.0 mi SE 12.7 mph - N/A   Clear
9:53 AM 73.0 °F 61.0 °F 66% 30.17 in 10.0 mi SE 15.0 mph 26.5 mph N/A   Overcast
10:42 AM 73.4 °F 60.8 °F 65% 30.19 in 10.0 mi SE 18.4 mph 25.3 mph N/A   Overcast
10:50 AM 73.4 °F 60.8 °F 65% 30.19 in 10.0 mi SE 16.1 mph 25.3 mph N/A   Overcast
10:53 AM 73.0 °F 61.0 °F 66% 30.19 in 10.0 mi SE 17.3 mph - N/A   Overcast
11:04 AM 73.4 °F 60.8 °F 65% 30.20 in 10.0 mi SE 18.4 mph 24.2 mph N/A   Overcast
11:49 AM 73.4 °F 60.8 °F 65% 30.19 in 10.0 mi SE 13.8 mph 24.2 mph N/A   Overcast
11:53 AM 73.9 °F 61.0 °F 64% 30.19 in 10.0 mi SE 18.4 mph 24.2 mph N/A   Overcast
12:17 PM 73.4 °F 60.8 °F 65% 30.19 in 10.0 mi SE 17.3 mph 26.5 mph N/A   Overcast
12:32 PM 75.2 °F 60.8 °F 61% 30.18 in 10.0 mi SE 17.3 mph - N/A   Overcast
12:43 PM 73.4 °F 60.8 °F 65% 30.18 in 10.0 mi SE 19.6 mph 26.5 mph N/A   Overcast
12:53 PM 73.9 °F 61.0 °F 64% 30.17 in 10.0 mi SE 16.1 mph 27.6 mph N/A   Overcast
1:22 PM 75.2 °F 60.8 °F 61% 30.17 in 10.0 mi SE 18.4 mph 27.6 mph N/A   Overcast
1:34 PM 75.2 °F 60.8 °F 61% 30.17 in 10.0 mi SE 17.3 mph 26.5 mph N/A   Overcast
1:53 PM 75.9 °F 61.0 °F 60% 30.17 in 10.0 mi SE 19.6 mph 26.5 mph N/A   Overcast
2:02 PM 75.2 °F 60.8 °F 61% 30.16 in 10.0 mi SE 16.1 mph - N/A   Overcast
2:53 PM 73.0 °F 60.1 °F 64% 30.14 in 10.0 mi SE 18.4 mph 25.3 mph N/A   Overcast
3:53 PM 73.9 °F 60.1 °F 62% 30.13 in 10.0 mi SE 13.8 mph 21.9 mph N/A   Overcast
4:53 PM 73.0 °F 60.1 °F 64% 30.12 in 10.0 mi SE 15.0 mph - N/A   Overcast
5:53 PM 72.0 °F 60.1 °F 66% 30.12 in 10.0 mi SE 17.3 mph - N/A   Overcast
6:53 PM 71.1 °F 60.1 °F 68% 30.14 in 10.0 mi SE 13.8 mph - N/A   Overcast
7:53 PM 70.0 °F 60.1 °F 71% 30.14 in 10.0 mi SE 12.7 mph - N/A   Overcast
8:53 PM 70.0 °F 61.0 °F 73% 30.16 in 10.0 mi SE 9.2 mph - N/A   Overcast
9:53 PM 69.1 °F 61.0 °F 75% 30.17 in 10.0 mi SE 10.4 mph - N/A   Overcast
10:53 PM 69.1 °F 61.0 °F 75% 30.18 in 10.0 mi SE 9.2 mph - N/A   Overcast
11:53 PM 68.0 °F 61.0 °F 78% 30.17 in 10.0 mi SE 10.4 mph - N/A   Mostly Cloudy